Location: Munkebjergskolens Observatorium
(55.3864°N, 10.3987°E)
Time: 10:03:26
(UTC+01:00)

Envisat - Visible Passes

Search period start: 28 November 2022 00:00
Search period end: 08 December 2022 00:00
Orbit: 763 x 765 km, 98.2° (Epoch: 27 November)

Date Brightness Start Highest point End Pass type
(mag) Time Alt. Az. Time Alt. Az. Time Alt. Az.
28 Nov 5.3 03:27:30 10° NE 03:31:00 21° E 03:31:00 21° E visible
28 Nov 2.8 05:05:49 10° NNE 05:10:55 78° WNW 05:11:10 76° WSW visible
28 Nov 4.3 06:45:47 10° N 06:49:14 19° NW 06:51:20 15° W visible
28 Nov 5.2 16:28:37 10° SSW 16:33:02 30° W 16:37:30 10° NNW visible
29 Nov 6.0 02:52:25 10° ENE 02:53:21 11° ENE 02:53:21 11° ENE visible
29 Nov 3.5 04:28:50 10° NNE 04:33:31 56° E 04:33:31 56° E visible
29 Nov 3.7 06:08:15 10° N 06:12:39 30° WNW 06:13:42 28° W visible
29 Nov 6.3 17:35:25 10° W 17:35:59 10° W 17:36:32 10° WNW visible
30 Nov 4.7 03:52:06 10° NNE 03:55:53 30° ENE 03:55:53 30° ENE visible
30 Nov 3.1 05:30:58 10° N 05:35:54 52° WNW 05:36:04 52° WNW visible
30 Nov 4.7 07:11:30 10° NNW 07:13:53 13° NW 07:16:14 10° WNW visible
30 Nov 5.7 16:54:43 10° SW 16:58:23 20° W 17:02:04 10° NW visible
01 Dec 5.6 03:15:53 10° NE 03:18:17 16° ENE 03:18:17 16° ENE visible
01 Dec 3.0 04:53:51 10° NNE 04:58:26 72° NNE 04:58:26 72° NNE visible
01 Dec 4.2 06:33:38 10° N 06:37:25 22° NW 06:38:37 20° WNW visible
02 Dec 4.1 04:16:56 10° NNE 04:20:50 41° ENE 04:20:50 41° ENE visible
02 Dec 3.5 05:56:11 10° N 06:00:47 35° WNW 06:01:00 35° WNW visible
02 Dec 6.0 17:21:35 10° WSW 17:23:49 13° W 17:26:03 10° NW visible
03 Dec 5.1 03:40:19 10° NE 03:43:13 23° ENE 03:43:13 23° ENE visible
03 Dec 3.1 05:18:57 10° N 05:23:24 58° NW 05:23:24 58° NW visible
03 Dec 4.5 06:59:11 10° NNW 07:02:07 16° NW 07:03:34 14° WNW visible
03 Dec 5.5 16:42:13 10° SW 16:46:16 24° W 16:50:22 10° NW visible
04 Dec 5.8 03:04:24 10° NE 03:05:38 13° ENE 03:05:38 13° ENE visible
04 Dec 3.6 04:41:54 10° NNE 04:45:48 52° NE 04:45:48 52° NE visible
04 Dec 3.9 06:21:30 10° N 06:25:36 25° NW 06:25:59 25° WNW visible
05 Dec 4.6 04:05:04 10° NNE 04:08:13 31° NE 04:08:13 31° NE visible
05 Dec 3.4 05:44:08 10° N 05:48:23 41° NW 05:48:23 41° NW visible
05 Dec 4.8 07:25:14 10° NNW 07:26:44 11° NW 07:28:13 10° WNW visible
05 Dec 5.8 17:08:39 10° WSW 17:11:40 16° W 17:14:42 10° NW visible
06 Dec 5.5 03:28:35 10° NE 03:30:38 18° ENE 03:30:38 18° ENE visible
06 Dec 3.4 05:06:57 10° NNE 05:10:48 51° N 05:10:48 51° N visible
06 Dec 4.3 06:46:58 10° N 06:50:20 18° NW 06:50:59 18° WNW visible
06 Dec 5.2 16:29:49 10° SSW 16:34:12 29° W 16:38:36 10° NNW visible
07 Dec 4.1 04:29:57 10° NNE 04:33:14 38° NE 04:33:14 38° NE visible
07 Dec 3.8 06:09:24 10° N 06:13:24 29° NW 06:13:24 29° NW visible
